TIME,DELAY(SENSOR),PRES,T(CTD),SAL,OXYGEN,RAWTEMP,T(OPTODE),TCPHASE,TURBIDITY,TURBIDITY_GAIN,FLUOR,BETA,CDOM,ED411.5,ED443.8,ED489.6,PAR,COMP,TILT,TILTY(TILT),CHECK
1341195499,6466,144.4199981689453000,5.3892998695373535,35.0037002563476560,361.7780151367187500,640.1439819335938000,5.3699069023132320,32.2087211608886700,17,3,50,120,62,2147640026,2147393320,2147284191,2148322624,2349,0,-4,13733
1341195560,6467,140.7200012207031200,5.3965997695922850,35.0037994384765600,361.6134033203125000,639.9340209960938000,5.3767151832580570,32.2103500366210940,16,3,50,123,62,2147635688,2147395551,2147285001,2148321435,2237,0,-4,52544
1341195647,6466,136.1000061035156200,5.4032001495361330,35.0042991638183600,361.3392028808594000,639.7136840820312000,5.3838481903076170,32.2154808044433600,46,3,50,143,62,2147636740,2147392251,2147284370,2148318294,2077,0,-4,19631
1341195708,6467,133.9400024414062500,5.4079999923706055,35.0037002563476560,361.2817077636719000,639.5869750976562000,5.3879551887512210,32.2147598266601560,16,3,50,117,62,2147638550,2147394253,2147282157,2148318390,2044,0,-4,58706
1341195771,6466,131.8899993896484400,5.4091000556945800,35.0036010742187500,361.3687133789062500,639.5322265625000000,5.3897271156311035,32.2111701965332000,15,3,50,118,62,2147636772,2147393572,2147285709,2148322093,1959,0,-4,55801
1341195832,6466,130.0299987792968800,5.4103999137878420,35.0041999816894500,361.4157104492187500,639.4732055664062000,5.3916401863098145,32.2086791992187500,15,3,50,118,60,2147633905,2147392406,2147282523,2148318838,1830,0,-4,51659
1341195923,6467,126.3799972534179700,5.4147000312805180,35.0041999816894500,361.0856933593750000,639.3563232421875000,5.3954257965087890,32.2172012329101560,15,3,50,118,61,2147636571,2147391899,2147279194,2148322134,1638,0,-4,16693
1341195984,6468,122.8499984741211000,5.4191999435424805,35.0041007995605500,360.7817077636719000,639.2310180664062000,5.3994851112365720,32.2246208190918000,16,3,50,122,62,2147638372,2147389599,2147282157,2148317933,1391,0,-4,57299
1341196047,6468,119.1999969482421900,5.4229998588562010,35.0043983459472660,360.3714904785156000,639.0651245117188000,5.4048581123352050,32.2348098754882800,11,3,50,119,62,2147639309,2147389457,2147283034,2148320854,1046,0,-4,60927
1341196108,6468,115.7600021362304700,5.4419999122619630,35.0042991638183600,359.7583007812500000,638.5745239257812000,5.4207420349121090,32.2456893920898440,16,3,50,128,62,2147638116,2147391688,2147278432,2148320603,657,0,-4,34696
1341196171,6469,112.2699966430664000,5.4453001022338870,35.0047988891601560,359.5874938964844000,638.3347167968750000,5.4285068511962890,32.2471008300781250,25,3,50,118,62,2147636859,2147394468,2147281590,2148319085,326,0,-4,60606
1341196232,6467,108.9700012207031200,5.4580998420715330,35.0051994323730500,359.5026855468750000,638.0369262695312000,5.4381480216979980,32.2443313598632800,16,3,51,120,62,2147638385,2147395071,2147284602,2148320552,64,0,-4,47094
1341196295,6466,105.6600036621093800,5.4626002311706540,35.0054016113281250,359.2901000976562500,637.7692260742188000,5.4468169212341310,32.2467117309570300,16,3,50,136,62,2147636548,2147392415,2147280964,2148319003,3281,0,-4,5146
1341196356,6468,102.5199966430664000,5.4822001457214355,35.0055007934570300,359.0809020996094000,637.2924804687500000,5.4622459411621090,32.2450485229492200,16,3,50,121,62,2147636543,2147391743,2147281073,2148319990,2961,0,-4,1276
1341196419,6466,99.4000015258789000,5.4958000183105470,35.0059013366699200,358.9313964843750000,636.8635253906250000,5.4761309623718260,32.2422294616699200,22,3,52,125,62,2147635939,2147391808,2147280493,2148318440,2816,0,-4,42754
1341196480,6469,96.4700012207031200,5.5255999565124510,35.0063018798828100,358.6189880371094000,636.0543823242188000,5.5023097991943360,32.2379798889160160,16,3,53,124,63,2147633727,2147396744,2147278093,2148323249,2627,0,-4,55050
1341196543,6467,93.5599975585937500,5.5395998954772950,35.0066986083984400,358.6095886230469000,635.4108276367188000,5.5231318473815920,32.2270889282226560,16,3,52,127,62,2147640058,2147393064,2147282184,2148324214,2434,0,-4,16488
1341196604,6468,90.8300018310546900,5.5762000083923340,35.0061988830566400,358.6247863769531000,634.3978271484375000,5.5558972358703610,32.2084312438964840,16,3,54,124,60,2147635436,2147394257,2147282207,2148318550,2261,0,-4,20799
1341196667,6468,88.1699981689453100,5.6062998771667480,35.0060005187988300,359.1052856445312500,633.5327148437500000,5.5838642120361330,32.1778602600097660,16,3,54,127,62,2147638508,2147394097,2147283021,2148322468,2224,0,-4,19960
1341196728,6468,85.7099990844726600,5.6280999183654785,35.0051002502441400,359.6600952148437500,632.8051147460938000,5.6073861122131350,32.1474800109863300,15,3,56,125,62,2147638024,2147390870,2147281663,2148321293,2160,0,-4,18179
1341196791,6468,83.2900009155273400,5.6519999504089355,35.0043983459472660,360.5987854003906000,632.1156005859375000,5.6296648979187010,32.1053695678710940,16,3,56,126,62,2147637654,2147390609,2147279469,2148319520,2065,0,-4,64212
1341196852,6467,80.9800033569336000,5.7000999450683590,35.0012016296386700,361.3894042968750000,630.6776733398438000,5.6761188507080080,32.0549011230468750,16,3,58,162,62,2147635624,2147391610,2147279510,2148318769,1866,0,-4,35929
1341196942,6467,76.9800033569336000,5.8067002296447750,35.0009994506835940,364.2774963378906000,627.2863159179688000,5.7855949401855470,31.9044990539550780,18,3,62,145,60,2147634445,2147391583,2147279002,2148318285,1614,0,-4,25090
1341197003,6467,73.5400009155273400,5.8488001823425290,35.0018997192382800,366.3637084960937500,625.9743041992188000,5.8279151916503910,31.8162899017334000,18,3,64,146,62,2147634897,2147393325,2147281169,2148321553,1355,0,-4,39593
1341197066,6469,69.9100036621093800,5.9264998435974120,35.0023002624511700,367.7532958984375000,623.4528808593750000,5.9091968536376950,31.7293891906738280,15,3,65,160,62,2147639277,2147390134,2147279067,2148322376,1091,0,-4,27901
1341197127,6468,66.4499969482421900,5.9597001075744630,35.0003013610839840,369.8234863281250000,622.5065917968750000,5.9396858215332030,31.6487503051757800,22,3,69,164,60,2147637901,2147389933,2147278929,2148322138,735,0,-4,15744
1341197190,6469,62.8699989318847660,5.9903001785278320,34.9996986389160160,371.5343933105469000,621.5936889648438000,5.9690909385681150,31.5803794860839840,34,3,73,164,62,2147642143,2147393211,2147280561,2148325248,469,0,-4,35376
1341197251,6468,59.3699989318847660,6.0258002281188965,35.0001983642578100,371.5093994140625000,620.4846801757812000,6.0047988891601560,31.5618705749511720,17,3,79,239,62,2147636845,2147395007,2147279391,2148320648,152,0,-4,42097
1341197314,6467,55.7200012207031250,6.0981998443603520,34.9991989135742200,370.9296875000000000,618.2830200195312000,6.0756587982177730,31.5422401428222660,18,3,92,169,62,2147637974,2147394664,2147279986,2148319441,3510,0,-4,2429
1341197375,6470,52.0800018310546900,6.1588997840881350,34.9986991882324200,369.6691894531250000,616.1420898437500000,6.1445121765136720,31.5443401336669920,20,3,108,205,63,2147637860,2147395414,2147277709,2148319762,3530,0,-4,46140
1341197438,6470,48.1899986267089840,6.3758001327514650,34.9935989379882800,369.5372009277344000,610.4412841796875000,6.3276348114013670,31.4516391754150400,28,3,163,284,64,2147636977,2147390627,2147276831,2148319583,3037,0,-4,45428
1341197499,6469,44.4599990844726560,6.5836000442504880,34.9902000427246100,372.4328918457031000,603.3767700195312000,6.5541210174560550,31.2440299987792970,37,3,255,342,64,2147637672,2147392036,2147280434,2148319816,2659,0,-4,10976
1341197585,6472,39.9599990844726560,6.7828001976013180,34.9873008728027340,378.2372131347656000,597.3449707031250000,6.7471160888671875,30.9682903289794920,51,3,389,416,64,2147639258,2147394696,2147278422,2148317837,2621,0,-4,12357
1341197646,6470,37.7200012207031250,6.8197999000549320,34.9882011413574200,381.4349060058594000,595.9334106445312000,6.7922329902648930,30.8499107360839840,72,3,426,475,64,2147638509,2147391922,2147280361,2148319730,2316,0,-4,10878
1341197709,6469,35.5699996948242200,6.9758000373840330,34.9851989746093750,381.7760009765625000,591.4047851562500000,6.9368481636047360,30.7653198242187500,92,3,436,379,64,2147635683,2147391067,2147280543,2148320895,2639,0,-4,50444
1341197770,6469,33.9500007629394500,7.1168999671936035,34.9831008911132800,382.3637084960937500,587.1503906250000000,7.0725312232971190,30.6784095764160160,63,3,488,399,64,2147641014,2147390582,2147279487,2148319144,3021,0,-4,33341
1341197856,6469,31.3999996185302730,7.2864999771118160,34.9823989868164060,386.7825012207031000,581.3698730468750000,7.2566151618957520,30.4556407928466800,113,3,684,990,64,2147641691,2147391501,2147280205,2148318733,2716,0,-4,43130
1341197917,6470,28.8299999237060550,7.4633002281188965,34.9817008972168000,390.9379882812500000,575.2183837890625000,7.4521827697753910,30.2371902465820300,132,3,635,1014,64,2147636324,2147395954,2147281421,2148319304,2504,0,-4,8748
1341198006,6471,24.7700004577636720,7.8376002311706540,34.9742012023925800,400.7669982910156000,564.1414184570312000,7.8034992218017580,29.7853507995605470,120,3,562,945,64,2147645238,2147397101,2147284324,2148319190,1879,0,-3,64777
1341198067,6469,21.5200004577636720,8.1156997680664060,34.9748992919921900,408.1771850585937500,555.2564697265625000,8.0845212936401370,29.4443492889404300,108,3,513,819,62,2147648401,2147402147,2147288424,2148319450,1948,0,-4,25878
1341198130,6470,18.5799999237060550,8.7929000854492190,34.9740982055664060,408.8413085937500000,535.3425903320312000,8.7120018005371100,29.1217002868652340,97,3,456,741,61,2147651446,2147409503,2147294742,2148323149,1595,0,-4,17728
1341198191,6469,16.2500000000000000,8.9306001663208000,34.9756011962890600,410.4771118164062500,528.4019775390625000,8.9299507141113280,28.9734497070312500,96,3,454,707,60,2147658793,2147413956,2147303862,2148324570,1590,0,-4,54092
1341198254,6470,13.6300001144409180,9.2543001174926760,34.9738006591796900,408.6004028320312500,518.2824707031250000,9.2470617294311520,28.8723793029785160,87,3,443,642,60,2147667597,2147422628,2147308461,2148327506,1260,3,-5,7882
1341198315,6469,10.8800001144409180,10.2047004699707030,34.9735984802246100,395.5327148437500000,489.9241027832031000,10.1317396163940430,28.8103103637695300,87,3,362,636,59,2147676649,2147434180,2147318376,2148330052,1259,3,-3,50226
1341198378,6472,8.4099998474121100,10.7250003814697270,34.9842987060546900,379.2710876464844000,471.9540100097656000,10.6894998550415040,29.0080299377441400,86,3,294,634,58,2147690417,2147444159,2147327451,2148332969,181,0,-2,10633
1341198430,6470,6.6799998283386230,10.8657999038696290,34.9891014099121100,371.6242065429687500,466.6973876953125000,10.8522596359252930,29.1548099517822270,90,3,294,602,60,2147702371,2147453489,2147332854,2148336763,2739,5,-12,20300
1341198480,6471,5.1500000953674320,10.9110002517700200,34.9911994934082000,367.7909851074219000,464.5718994140625000,10.9180297851562500,29.2375907897949220,98,3,280,576,57,2147711304,2147461530,2147340931,2148343226,158,-14,-6,19461
1341198546,6469,32.0000000000000000,0.0000000000000000,0.0000000000000000,364.9060974121094000,456.9617919921875000,11.1532697677612300,29.2149391174316400,84,3,266,579,58,2147725631,2147472209,2147352790,2148348685,3300,1,-1,19831
1341198602,6469,0.2000000029802322,0.0000000000000000,0.0000000000000000,362.5097961425781000,451.8135070800781000,11.3122196197509770,29.2135295867919920,105,3,246,552,58,2147740675,2147491113,2147361101,2148362015,1426,16,-12,7963
